User: anonymous   Login
Location: Seasalter
(51.3333°N, 1.0167°E)
Time: 11:11:39
(UTC+00:00)
Language:

CZ-4C R/B - Orbit

View from above orbital plane
View from above orbital plane
View from above satellite
View from above satellite

Ground track
Ground track

The orbit data is extracted from the following two-line orbital elements,

1 36416U 10009D   24056.71988109  .00000379  00000-0  13916-3 0  9992
2 36416  63.4028 168.7086 0625381 358.4215   1.4837 13.70510504699007
Epoch (UTC): 25 February 2024 17:16:37
Eccentricity: 0.0625381
inclination: 63.4028°
perigee height: 536 km
apogee height: 1459 km
right ascension of ascending node: 168.7086°
argument of perigee: 358.4215°
revolutions per day: 13.70510504
mean anomaly at epoch: 1.4837°
orbit number at epoch: 69900

The dashed part of the orbit path shows where the satellite is in the earth's shadow,  

DLR